Date String (YYYY-MM-DD hh:mm:ss) UTC,Instrument flags,absolute air pressure of the measurement (hPa),sample flow rate (lpm),inlet stack bypass flow (lpm),air temperature of the measurement (°C),ambient temperature measured by the external sensor (°C),aerosol sample conditioner tube jacket temperature (°C),OPC LED temperature (°C),internal box temperature (°C),relative humidity of the measurement (%),span deviation,mass concentration of particles derived from Lorenz-Mie calculation of OPC scattering (μg/m³),mass concentration of particles derived from Lorenz-Mie calculation of OPC scattering (μg/m³),mass concentration of particles derived from Lorenz-Mie calculation of OPC scattering (μg/m³)
DateTimeUTC,F1_M11,P_M11,Q1_M11,Q2_M11,T1_M11,T2_M11,T3_M11,T4_M11,T5_M11,U1_M11,ZSPAN_M11,X0_M11,X2_M11,X1_M11
2024-03-12 09:00:00,SystemResetWarning,0824.9,5.01,000.00,021.2,020.4,000.0,029.8,023.0,16.6,0000.0,0010.54,0003.12,0001.35
2024-03-12 09:01:00,SystemResetWarning,0824.8,5.01,000.00,021.2,020.4,000.0,029.7,023.0,16.7,0000.0,0010.34,0003.07,0001.34
2024-03-12 09:02:00,SystemResetWarning,0824.7,4.99,000.00,021.2,020.4,000.0,029.7,023.0,16.7,0000.0,0010.18,0003.02,0001.34
2024-03-12 09:03:00,SystemResetWarning,0824.8,4.99,000.00,021.2,020.4,000.0,029.7,023.0,16.7,0000.0,0010.22,0002.97,0001.34
2024-03-12 09:04:00,SystemResetWarning,0824.7,4.99,000.00,021.2,020.3,000.0,029.7,022.9,16.9,0000.0,0010.14,0002.91,0001.33
2024-03-12 09:05:00,SystemResetWarning,0824.7,5.00,000.00,021.1,020.3,000.0,029.7,022.9,17.0,0000.0,0010.16,0002.88,0001.32
2024-03-12 09:06:00,SystemResetWarning,0824.7,5.00,000.00,021.1,020.3,000.0,029.7,022.8,17.2,0000.0,0010.20,0002.80,0001.27
2024-03-12 09:07:00,SystemResetWarning,0824.8,5.00,000.00,021.1,020.2,000.0,029.7,022.8,17.3,0000.0,0009.29,0002.73,0001.24
2024-03-12 09:08:00,SystemResetWarning,0824.8,5.01,000.00,021.1,020.2,000.0,029.7,022.8,17.3,0000.0,0007.70,0002.71,0001.23
2024-03-12 09:09:00,SystemResetWarning,0824.8,5.00,000.00,021.1,020.2,000.0,029.7,022.8,17.4,0000.0,0007.59,0002.70,0001.22
2024-03-12 09:10:00,SystemResetWarning,0824.8,4.99,000.00,021.0,020.2,000.0,029.6,022.8,17.5,0000.0,0007.59,0002.69,0001.20
2024-03-12 09:11:00,SystemResetWarning,0824.7,5.00,000.00,021.0,020.2,000.0,029.6,022.8,17.5,0000.0,0007.47,0002.64,0001.19
2024-03-12 09:12:00,SystemResetWarning,0824.7,4.99,000.00,021.0,020.1,000.0,029.6,022.8,17.4,0000.0,0007.48,0002.66,0001.18
2024-03-12 09:13:00,SystemResetWarning,0824.7,5.00,000.00,021.0,020.1,000.0,029.6,022.7,17.4,0000.0,0007.52,0002.66,0001.15
2024-03-12 09:14:00,SystemResetWarning,0824.7,5.00,000.00,021.0,020.1,000.0,029.6,022.7,17.4,0000.0,0006.47,0002.60,0001.12
2024-03-12 09:15:00,SystemResetWarning,0824.7,5.01,000.00,021.0,020.1,000.0,029.6,022.7,17.5,0000.0,0006.26,0002.52,0001.09
2024-03-12 09:16:00,SystemResetWarning,0824.7,5.01,000.00,021.0,020.1,000.0,029.6,022.7,17.6,0000.0,0005.93,0002.43,0001.05
2024-03-12 09:17:00,SystemResetWarning,0824.7,4.99,000.00,020.9,020.1,000.0,029.5,022.7,17.7,0000.0,0006.25,0002.40,0001.04
2024-03-12 09:18:00,SystemResetWarning,0824.7,4.99,000.00,020.9,020.1,000.0,029.5,022.7,17.6,0000.0,0006.05,0002.31,0001.01
2024-03-12 09:19:00,SystemResetWarning,0824.7,5.01,000.00,020.9,020.1,000.0,029.5,022.7,17.6,0000.0,0005.94,0002.27,0000.99
2024-03-12 09:20:00,SystemResetWarning,0824.7,5.01,000.00,020.9,020.1,000.0,029.5,022.7,17.7,0000.0,0005.61,0002.16,0000.96
2024-03-12 09:21:00,SystemResetWarning,0824.7,5.00,000.00,020.9,020.1,000.0,029.5,022.7,17.6,0000.0,0005.37,0002.09,0000.95
2024-03-12 09:22:00,SystemResetWarning,0824.7,4.99,000.00,020.9,020.1,000.0,029.5,022.7,17.7,0000.0,0005.02,0001.97,0000.92
2024-03-12 09:23:00,SystemResetWarning,0824.7,5.00,000.00,020.9,020.1,000.0,029.5,022.7,17.6,0000.0,0005.21,0001.86,0000.90
2024-03-12 09:24:00,SystemResetWarning,0824.7,5.00,000.00,020.9,020.1,000.0,029.4,022.6,17.6,0000.0,0005.92,0001.80,0000.89
2024-03-12 09:25:00,SystemResetWarning,0824.7,5.00,000.00,020.9,020.1,000.0,029.4,022.6,17.7,0000.0,0005.79,0001.74,0000.87
2024-03-12 09:26:00,SystemResetWarning,0824.7,5.00,000.00,020.9,020.1,000.0,029.4,022.6,17.8,0000.0,0005.84,0001.74,0000.85
2024-03-12 09:27:00,SystemResetWarning,0824.6,5.00,000.00,020.9,020.1,000.0,029.4,022.6,17.7,0000.0,0005.82,0001.75,0000.84
2024-03-12 09:28:00,SystemResetWarning,0824.6,5.00,000.00,020.9,020.1,000.0,029.4,022.6,17.7,0000.0,0005.16,0001.71,0000.83
2024-03-12 09:29:00,SystemResetWarning,0824.5,5.01,000.00,020.8,020.1,000.0,029.4,022.6,17.6,0000.0,0004.82,0001.65,0000.83
2024-03-12 09:30:00,SystemResetWarning,0824.5,5.00,000.00,020.8,020.1,000.0,029.4,022.6,17.6,0000.0,0004.77,0001.58,0000.81
2024-03-12 09:31:00,SystemResetWarning,0824.4,5.01,000.00,020.8,020.1,000.0,029.4,022.7,17.5,0000.0,0004.58,0001.51,0000.79
2024-03-12 09:32:00,SystemResetWarning,0824.4,5.01,000.00,020.8,020.1,000.0,029.4,022.7,17.5,0000.0,0004.39,0001.43,0000.77
2024-03-12 09:33:00,SystemResetWarning,0824.5,4.98,000.00,020.8,020.1,000.0,029.4,022.7,17.4,0000.0,0004.48,0001.45,0000.76
2024-03-12 09:34:00,SystemResetWarning,0824.4,5.00,000.00,020.8,020.1,000.0,029.4,022.7,17.3,0000.0,0003.94,0001.46,0000.76
2024-03-12 09:35:00,SystemResetWarning,0824.5,5.01,000.00,020.8,020.1,000.0,029.4,022.6,17.4,0000.0,0003.00,0001.43,0000.75
2024-03-12 09:36:00,SystemResetWarning,0824.5,5.01,000.00,020.8,020.1,000.0,029.4,022.6,17.3,0000.0,0002.97,0001.44,0000.74
2024-03-12 09:37:00,SystemResetWarning,0824.4,4.99,000.00,020.8,020.1,000.0,029.4,022.6,17.2,0000.0,0002.79,0001.38,0000.74
2024-03-12 09:38:00,SystemResetWarning,0824.4,4.99,000.00,020.8,020.1,000.0,029.4,022.6,17.1,0000.0,0002.75,0001.36,0000.73
2024-03-12 09:39:00,SystemResetWarning,0824.4,5.00,000.00,020.8,020.1,000.0,029.3,022.6,17.1,0000.0,0002.77,0001.37,0000.71
2024-03-12 09:40:00,SystemResetWarning,0824.3,5.01,000.00,020.8,020.1,000.0,029.3,022.6,17.0,0000.0,0003.25,0001.35,0000.69
2024-03-12 09:41:00,SystemResetWarning,0824.4,5.01,000.00,020.8,020.1,000.0,029.3,022.6,17.1,0000.0,0003.14,0001.34,0000.67
2024-03-12 09:42:00,SystemResetWarning,0824.3,5.00,000.00,020.8,020.1,000.0,029.3,022.6,17.0,0000.0,0003.18,0001.37,0000.67
2024-03-12 09:43:00,SystemResetWarning,0824.4,5.00,000.00,020.8,020.1,000.0,029.3,022.6,16.9,0000.0,0003.18,0001.37,0000.67
2024-03-12 09:44:00,SystemResetWarning,0824.3,4.99,000.00,020.8,020.1,000.0,029.3,022.6,16.9,0000.0,0003.07,0001.36,0000.67
2024-03-12 09:45:00,SystemResetWarning,0824.4,5.00,000.00,020.8,020.1,000.0,029.3,022.6,16.9,0000.0,0003.03,0001.34,0000.66
2024-03-12 09:46:00,SystemResetWarning,0824.4,5.00,000.00,020.8,020.1,000.0,029.3,022.6,16.9,0000.0,0003.04,0001.33,0000.65
2024-03-12 09:47:00,SystemResetWarning,0824.4,5.00,000.00,020.8,020.1,000.0,029.3,022.6,16.8,0000.0,0003.08,0001.34,0000.65
2024-03-12 09:48:00,SystemResetWarning,0824.4,5.00,000.00,020.8,020.1,000.0,029.3,022.6,16.9,0000.0,0003.13,0001.34,0000.65
2024-03-12 09:49:00,SystemResetWarning,0824.4,5.01,000.00,020.8,020.1,000.0,029.3,022.6,16.7,0000.0,0004.04,0001.41,0000.66
2024-03-12 09:50:00,SystemResetWarning,0824.4,4.99,000.00,020.8,020.1,000.0,029.3,022.6,16.5,0000.0,0004.15,0001.44,0000.67
2024-03-12 09:51:00,SystemResetWarning,0824.4,4.99,000.00,020.8,020.1,000.0,029.3,022.7,16.4,0000.0,0003.73,0001.41,0000.69
2024-03-12 09:52:00,SystemResetWarning,0824.4,5.00,000.00,020.8,020.1,000.0,029.3,022.6,16.2,0000.0,0003.51,0001.43,0000.71
2024-03-12 09:53:00,SystemResetWarning,0824.4,5.00,000.00,020.8,020.1,000.0,029.3,022.6,16.1,0000.0,0003.60,0001.45,0000.72
2024-03-12 09:54:00,SystemResetWarning,0824.3,5.00,000.00,020.8,020.1,000.0,029.3,022.6,15.6,0000.0,0004.47,0001.48,0000.72
2024-03-12 09:55:00,SystemResetWarning,0824.3,5.01,000.00,020.8,020.1,000.0,029.3,022.6,15.5,0000.0,0005.25,0001.55,0000.72
2024-03-12 09:56:00,SystemResetWarning,0824.4,5.00,000.00,020.8,020.1,000.0,029.3,022.6,15.6,0000.0,0005.42,0001.61,0000.72
2024-03-12 09:57:00,SystemResetWarning,0824.3,5.00,000.00,020.8,020.1,000.0,029.3,022.6,15.7,0000.0,0005.42,0001.61,0000.72
2024-03-12 09:58:00,SystemResetWarning,0824.3,5.00,000.00,020.8,020.1,000.0,029.3,022.6,15.3,0000.0,0005.50,0001.64,0000.73
2024-03-12 09:59:00,SystemResetWarning,0824.4,4.99,000.00,020.8,020.1,000.0,029.3,022.6,15.4,0000.0,0005.52,0001.66,0000.74
